Location: *
(38.9555°S, 57.3572°E)
Time: 01:51:48
(UTC+00:00)

Helios 1A Rocket - Pass Details

Date: 15 July 2020
Orbit: 563 x 587 km, 98.3° (Epoch: 06 August)

Event Time Altitude Azimuth Distance (km) Brightness Sun altitude
Exits shadow 14:04:55 15° 114° (ESE) 1,610 4.5 -11.1°
Maximum altitude 14:06:33 19° 86° (E) 1,447 4.4 -11.4°
Drops below altitude 10° 14:09:31 10° 40° (NE) 1,922 5.4 -11.9°
Sets 14:12:12 0° 22° (NNE) 2,811 6.4 -12.4°
